TimeMST,TemperatureF,Dew PointF,Humidity,Sea Level PressureIn,VisibilityMPH,Wind Direction,Wind SpeedMPH,Gust SpeedMPH,PrecipitationIn,Events,Conditions,WindDirDegrees,DateUTC
12:53 AM,19.9,12.9,74,29.94,10.0,East,12.7,-,N/A,,Clear,100,2013-02-20 07:53:00
1:53 AM,19.0,12.0,74,29.93,10.0,East,12.7,-,N/A,,Clear,100,2013-02-20 08:53:00
2:53 AM,18.0,10.9,74,29.92,10.0,ESE,11.5,-,N/A,,Clear,110,2013-02-20 09:53:00
3:53 AM,17.1,9.0,71,29.90,10.0,ESE,15.0,-,N/A,,Clear,120,2013-02-20 10:53:00
5:41 AM,15.8,8.6,73,29.81,10.0,East,16.1,-,N/A,,Mostly Cloudy,100,2013-02-20 12:41:00
5:53 AM,15.1,8.1,74,29.91,10.0,ESE,15.0,-,N/A,,Overcast,110,2013-02-20 12:53:00
6:53 AM,16.0,8.1,71,29.92,10.0,ESE,12.7,-,N/A,,Overcast,110,2013-02-20 13:53:00
7:53 AM,17.1,7.0,65,29.93,10.0,ESE,12.7,-,N/A,,Overcast,110,2013-02-20 14:53:00
9:53 AM,21.0,9.0,60,29.90,10.0,ESE,15.0,21.9,N/A,,Overcast,120,2013-02-20 16:53:00
10:53 AM,25.0,12.0,58,29.88,10.0,SE,17.3,24.2,N/A,,Overcast,130,2013-02-20 17:53:00
11:53 AM,28.9,15.1,56,29.85,10.0,ESE,19.6,28.8,N/A,,Mostly Cloudy,120,2013-02-20 18:53:00
12:08 PM,28.4,15.8,59,29.74,10.0,SE,21.9,29.9,N/A,,Scattered Clouds,140,2013-02-20 19:08:00
12:35 PM,28.4,15.8,59,29.73,10.0,ESE,21.9,33.4,N/A,,Mostly Cloudy,120,2013-02-20 19:35:00
12:53 PM,28.0,17.1,63,29.84,10.0,SE,19.6,31.1,N/A,,Mostly Cloudy,130,2013-02-20 19:53:00
1:53 PM,28.9,19.0,67,29.82,10.0,SE,23.0,28.8,N/A,,Overcast,140,2013-02-20 20:53:00
2:53 PM,27.0,19.9,75,29.83,10.0,ESE,17.3,24.2,N/A,,Overcast,120,2013-02-20 21:53:00
3:32 PM,26.6,19.4,74,29.71,10.0,ESE,19.6,25.3,N/A,,Overcast,120,2013-02-20 22:32:00
3:53 PM,25.0,19.0,78,29.84,10.0,SE,17.3,-,N/A,,Overcast,130,2013-02-20 22:53:00
4:53 PM,25.0,19.9,81,29.86,10.0,ESE,13.8,24.2,N/A,,Overcast,120,2013-02-20 23:53:00
6:53 PM,21.9,16.0,78,29.90,10.0,ESE,13.8,-,N/A,,Overcast,110,2013-02-21 01:53:00
7:53 PM,21.9,16.0,78,29.91,10.0,ESE,12.7,-,N/A,,Overcast,110,2013-02-21 02:53:00
8:02 PM,21.2,15.8,80,29.77,10.0,ESE,15.0,-,N/A,,Overcast,110,2013-02-21 03:02:00
8:53 PM,21.0,16.0,81,29.92,10.0,East,11.5,-,N/A,,Overcast,100,2013-02-21 03:53:00
9:53 PM,19.9,16.0,85,29.92,4.0,ESE,13.8,-,0.00,Snow,Light Snow,110,2013-02-21 04:53:00
10:53 PM,19.0,16.0,88,29.91,10.0,ESE,11.5,-,0.00,,Overcast,120,2013-02-21 05:53:00
11:53 PM,19.0,16.0,88,29.90,2.5,East,12.7,-,0.00,Snow,Light Snow,100,2013-02-21 06:53:00